Showing default

HULIANWANG DIGUI-132, 67240

Orbit data source: Space-Track

HULIANWANG DIGUI-132, 67240 is a payload satellite owned by Zhongguo Xingwang (CN) in LEO that was launched on Thu, 25 Dec 2025 UTC via a CHANG ZHENG 8A launch vehicle from the Wenchang Satellite Launch Center (WSC). Payload-class satellites include a variety of spacecraft equipped with specific instruments for various scientific and technological missions. These include communications satellites like Starlink; space stations such as the ISS; scientific satellites like the Hubble; Earth observation satellites from companies like Planet Labs, Umbra, and HawkEye 360; GPS; miniature CubeSats for education and research; and military/defense satellites.

Loading next visibility...
Identifier
67240, 2025-311E
Orbit
LEO
Country
Flag of CNCN / PRC
Related business
Manufacturer
CAST
Mission
Operational Civil Communications
Bus & Motor
XINGWANG C, Unknown motor
Mass
~700 kg wet, ~700 kg dry
Launch date (UTC)
2025-12-25 (6 months ago)
Launch vehicle
CHANG ZHENG 8A
Launch site
Wenchang Satellite Launch Center (WSC)
Object type
Payload
Rocket body
Debris
Shape & HBR
Box + 2 Pan, 14.5 m
Radar Cross Section
5.935 m², Large (>1 m²)

Expand to show TLE details & history
Last TLE update: 22 hours ago

TLE from 22 hours ago
0 HULIANWANG DIGUI-132
1 67240U 25311E   26163.19154212 -.00000162  00000-0 -82358-4 0  9995
2 67240  50.0055 133.7921 0001095 307.0240  53.0532 13.29322045 22679
Epoch: 2026-06-12T04:35Z
TLE epoch observation values (Epoch: 2026-06-12T04:35:49.239Z)
Latitude
Longitude
164.31241°
Altitude
1,149.333 km
Speed
7.28 km/s
True Right ascension
08h 55m 10s
True Declination
0° 00' 00"
Sunlit
Object was in daylight at epoch
Visualization orbit readout
Latitude
Unknown
Longitude
Unknown
Altitude
Unknown
Speed
Unknown
Apparent Right ascension
Unknown
Apparent Declination
Unknown
Sunlit
N/A
Visualization observer readout
Local Sidereal Time
12:48:52
Azimuth
Unknown
Elevation
Unknown
Doppler factor
Unknown
Orbital elements
Apogee altitude
1,150.85 km
Perigee altitude
1,149.202 km
Semi-major axis
7,528.163 km
Eccentricity
0.00011
Inclination
50.0055°
RAAN
133.7921°
Arg. of periapsis
307.024°
True anomaly
53.06323°
Mean anomaly
53.0532°
Eccentric anomaly
53.05821°
Mean motion
3.32284 °/min
Orbital period
108.34 mins
BSTAR
-0.000082358
Loading maneuver chart data...
Computing Atmospheric mass density...
Loading historical data...
Loading historical data...
Loading historical data...
Loading historical data...
Loading historical data...
Loading historical data...
Loading historical data...

Documentation

Showing up to 5 results
|